Weather History for Bellefontaine, OH

Change the Weather History Date:

Wednesday, November 23, 2011

  Actual Average (KDAY) Record (KDAY)
Temperature  
Mean Temperature 42 °F 40 °F  
Max Temperature 48 °F 47 °F 72 °F (1931)
Min Temperature 37 °F 32 °F 13 °F (1950)
Degree Days  
Heating Degree Days 22 25  
Month to date heating degree days 473  
Since 1 July heating degree days 920  
Cooling Degree Days 0 0  
Month to date cooling degree days 0  
Year to date cooling degree days 891  
Moisture  
Dew Point 37 °F    
Average Humidity 90    
Maximum Humidity 100    
Minimum Humidity 58    
Precipitation  
Precipitation 0.00 in 0.12 in 1.26 in (1983)
Month to date precipitation 2.59  
Year to date precipitation 37.13  
Snow  
Snow 0.00 in 0.00 in 1.40 in (1956)
Month to date snowfall 0.3  
Since 1 July snowfall 0.7  
Since 1 September snowfall 0.7  
Snow Depth -    
Sea Level Pressure  
Sea Level Pressure 30.07 in    
Wind  
Wind Speed 11 mph (WNW)    
Max Wind Speed 18 mph    
Max Gust Speed 29 mph    
Visibility 7 miles    
Events      
T = Trace of Precipitation, MM = Missing Value Source: NWS Daily Summary

Daily Weather History Graph

Daily Weather History Graph

Search for Another Location

Airport:

Trip Planner

Search our weather history database for the weather conditions in past years. The results will help you decide how hot, cold, wet, or windy it might be!

Date:

Astronomy

Nov. 23, 2011 Rise Set
Actual Time 7:30 AM EST 5:12 PM EST
Civil Twilight 7:00 AM EST 5:42 PM EST
Nautical Twilight 6:27 AM EST 6:15 PM EST
Astronomical Twilight 5:54 AM EST 6:48 PM EST
Moon 5:33 AM EST (11/23) 3:53 PM EST (11/23)
Length of Visible Light 10h 42m
Length of Day
9h 42m
Waning Crescent, 4% of the Moon is Illuminated
Nov 23
Waning Crescent
Nov 25
New
Dec 2
First Quarter
Dec 10
Full
Dec 17
Last Quarter

Hourly Weather History & Observations

Time (EST) Temp. Windchill Dew Point Humidity Pressure Visibility Wind Dir Wind Speed Gust Speed Precip Events Conditions
12:10 AM 37.4 °F 29.3 °F 37.4 °F 100% 29.75 in 3.0 mi WNW 12.7 mph 18.4 mph 0.00 in   Overcast
12:35 AM 37.4 °F 28.9 °F 37.4 °F 100% 29.76 in 2.5 mi WNW 13.8 mph 23.0 mph 0.00 in   Overcast
12:55 AM 37.4 °F 27.5 °F 37.4 °F 100% 29.77 in 3.0 mi NW 18.4 mph 28.8 mph 0.00 in   Overcast
1:10 AM 37.4 °F 28.5 °F 37.4 °F 100% 29.77 in 3.0 mi NW 15.0 mph 18.4 mph 0.00 in   Overcast
1:35 AM 37.4 °F 28.9 °F 37.4 °F 100% 29.78 in 3.0 mi NW 13.8 mph 23.0 mph 0.00 in   Overcast
2:10 AM 37.4 °F 29.8 °F 37.4 °F 100% 29.80 in 3.0 mi NW 11.5 mph 20.7 mph 0.00 in   Overcast
2:35 AM 37.4 °F 28.5 °F 37.4 °F 100% 29.80 in 3.0 mi NW 15.0 mph 19.6 mph 0.00 in   Overcast
2:55 AM 37.4 °F 28.9 °F 37.4 °F 100% 29.82 in 4.0 mi WNW 13.8 mph 19.6 mph 0.00 in   Overcast
3:35 AM 37.4 °F 29.8 °F 37.4 °F 100% 29.83 in 9.0 mi NW 11.5 mph 19.6 mph 0.00 in   Overcast
3:50 AM 37.4 °F 29.3 °F 37.4 °F 100% 29.84 in 8.0 mi NW 12.7 mph 18.4 mph 0.00 in   Overcast
4:35 AM 37.4 °F 29.3 °F 37.4 °F 100% 29.85 in 7.0 mi NW 12.7 mph 21.9 mph 0.00 in   Overcast
4:55 AM 37.4 °F 28.9 °F 37.4 °F 100% 29.88 in 6.0 mi NW 13.8 mph 20.7 mph 0.00 in   Overcast
5:10 AM 37.4 °F 28.2 °F 37.4 °F 100% 29.89 in 5.0 mi NW 16.1 mph 23.0 mph 0.00 in   Overcast
5:35 AM 39.2 °F 31.2 °F 39.2 °F 100% 29.92 in 10.0 mi NW 13.8 mph 19.6 mph 0.00 in   Overcast
6:10 AM 39.2 °F 29.8 °F 39.2 °F 100% 29.94 in 10.0 mi NNW 18.4 mph 24.2 mph 0.00 in   Overcast
6:35 AM 37.4 °F 28.2 °F 37.4 °F 100% 29.97 in 10.0 mi NW 16.1 mph 24.2 mph 0.00 in   Overcast
7:35 AM 37.4 °F 28.5 °F 37.4 °F 100% 30.01 in 8.0 mi NW 15.0 mph 21.9 mph 0.00 in   Overcast
7:50 AM 37.4 °F 29.8 °F 37.4 °F 100% 30.02 in 7.0 mi NW 11.5 mph 19.6 mph 0.00 in   Overcast
8:35 AM 37.4 °F 28.9 °F 37.4 °F 100% 30.05 in 5.0 mi NNW 13.8 mph - 0.00 in   Overcast
8:55 AM 37.4 °F 31.4 °F 37.4 °F 100% 30.06 in 5.0 mi NW 8.1 mph - 0.00 in   Overcast
9:15 AM 37.4 °F 30.3 °F 37.4 °F 100% 30.07 in 5.0 mi NW 10.4 mph - 0.00 in   Overcast
9:30 AM 37.4 °F 30.3 °F 37.4 °F 100% 30.08 in 4.0 mi NW 10.4 mph - 0.00 in   Overcast
9:50 AM 37.4 °F 30.8 °F 37.4 °F 100% 30.09 in 5.0 mi NW 9.2 mph - 0.00 in   Overcast
10:10 AM 39.2 °F 32.5 °F 39.2 °F 100% 30.10 in 5.0 mi NW 10.4 mph - 0.00 in   Overcast
10:35 AM 37.4 °F 30.8 °F 37.4 °F 100% 30.11 in 5.0 mi WNW 9.2 mph - 0.00 in   Overcast
10:55 AM 39.2 °F 32.5 °F 37.4 °F 93% 30.12 in 5.0 mi NW 10.4 mph - 0.00 in   Overcast
11:10 AM 39.2 °F 33.0 °F 39.2 °F 100% 30.12 in 7.0 mi WNW 9.2 mph - 0.00 in   Overcast
11:30 AM 39.2 °F 33.6 °F 39.2 °F 100% 30.12 in 7.0 mi WNW 8.1 mph - 0.00 in   Overcast
11:50 AM 41.0 °F 35.8 °F 39.2 °F 93% 30.12 in 8.0 mi West 8.1 mph - 0.00 in   Mostly Cloudy
12:35 PM 44.6 °F 39.7 °F 39.2 °F 81% 30.12 in 10.0 mi West 9.2 mph 16.1 mph 0.00 in   Clear
12:50 PM 44.6 °F 39.7 °F 37.4 °F 76% 30.12 in 10.0 mi WNW 9.2 mph - 0.00 in   Clear
1:10 PM 46.4 °F 42.4 °F 37.4 °F 71% 30.12 in 10.0 mi WNW 8.1 mph 16.1 mph 0.00 in   Clear
1:30 PM 46.4 °F 41.1 °F 37.4 °F 71% 30.12 in 10.0 mi WNW 11.5 mph 16.1 mph 0.00 in   Clear
1:50 PM 46.4 °F 41.1 °F 37.4 °F 71% 30.12 in 10.0 mi WNW 11.5 mph - 0.00 in   Clear
2:15 PM 46.4 °F 41.5 °F 35.6 °F 66% 30.13 in 10.0 mi NW 10.4 mph - 0.00 in   Clear
2:30 PM 48.2 °F - 35.6 °F 62% 30.13 in 10.0 mi WNW 8.1 mph - 0.00 in   Clear
2:50 PM 48.2 °F - 33.8 °F 58% 30.14 in 10.0 mi WNW 9.2 mph - 0.00 in   Clear
3:30 PM 48.2 °F - 33.8 °F 58% 30.15 in 10.0 mi WNW 10.4 mph 17.3 mph 0.00 in   Clear
3:50 PM 48.2 °F - 33.8 °F 58% 30.15 in 10.0 mi WNW 8.1 mph - 0.00 in   Clear
4:15 PM 46.4 °F 42.9 °F 33.8 °F 62% 30.16 in 10.0 mi WNW 6.9 mph - 0.00 in   Clear
4:35 PM 46.4 °F 42.9 °F 35.6 °F 66% 30.16 in 10.0 mi WNW 6.9 mph - 0.00 in   Clear
4:50 PM 44.6 °F 42.2 °F 35.6 °F 71% 30.16 in 10.0 mi West 4.6 mph - 0.00 in   Clear
5:10 PM 42.8 °F - 35.6 °F 76% 30.16 in 10.0 mi Calm Calm - 0.00 in   Clear
5:30 PM 42.8 °F - 35.6 °F 76% 30.16 in 10.0 mi Calm Calm - 0.00 in   Clear
5:50 PM 42.8 °F 41.1 °F 35.6 °F 76% 30.17 in 10.0 mi West 3.5 mph - 0.00 in   Clear
6:15 PM 42.8 °F 40.1 °F 35.6 °F 76% 30.17 in 10.0 mi WSW 4.6 mph - 0.00 in   Clear
6:35 PM 39.2 °F 35.9 °F 35.6 °F 87% 30.18 in 10.0 mi SW 4.6 mph - 0.00 in   Clear
6:50 PM 39.2 °F 35.9 °F 35.6 °F 87% 30.18 in 10.0 mi WSW 4.6 mph - 0.00 in   Clear
7:10 PM 39.2 °F 35.9 °F 35.6 °F 87% 30.19 in 10.0 mi WSW 4.6 mph - 0.00 in   Clear
7:50 PM 39.2 °F 35.9 °F 37.4 °F 93% 30.20 in 10.0 mi WSW 4.6 mph - 0.00 in   Clear
8:15 PM 37.4 °F 33.8 °F 37.4 °F 100% 30.21 in 10.0 mi SW 4.6 mph - 0.00 in   Clear
8:30 PM 37.4 °F - 37.4 °F 100% 30.22 in 9.0 mi Calm Calm - 0.00 in   Clear
8:55 PM 37.4 °F 32.1 °F 37.4 °F 100% 30.22 in 6.0 mi WSW 6.9 mph - 0.00 in   Clear
9:30 PM 37.4 °F 32.8 °F 37.4 °F 100% 30.23 in 4.0 mi West 5.8 mph - 0.00 in   Mostly Cloudy
10:10 PM 37.4 °F 32.8 °F 37.4 °F 100% 30.25 in 0.2 mi West 5.8 mph - 0.00 in   Overcast
10:30 PM 37.4 °F 32.1 °F 37.4 °F 100% 30.25 in 0.2 mi West 6.9 mph - 0.00 in   Overcast
10:55 PM 37.4 °F 32.1 °F 37.4 °F 100% 30.25 in 1.2 mi WSW 6.9 mph - 0.00 in   Overcast
11:10 PM 37.4 °F 31.4 °F 37.4 °F 100% 30.24 in 1.2 mi WSW 8.1 mph - 0.00 in   Overcast
11:30 PM 37.4 °F 32.1 °F 37.4 °F 100% 30.24 in 1.5 mi WSW 6.9 mph - 0.00 in   Overcast
11:55 PM 37.4 °F 30.8 °F 37.4 °F 100% 30.24 in 1.5 mi WSW 9.2 mph - 0.00 in   Overcast